Time,TemperatureF,DewpointF,PressureIn,WindDirection,WindDirectionDegrees,WindSpeedMPH,WindSpeedGustMPH,Humidity,HourlyPrecipIn,Conditions,Clouds,dailyrainin,SoftwareType,DateUTC
2013-03-23 00:02:00,20.0,18.0,-100.00,NW,325,6.0,6.0,89,0.00,,,0.00,,2013-03-23 05:02:00,
2013-03-23 00:12:00,20.0,18.0,-100.00,NW,320,6.0,7.0,89,0.00,,,0.00,,2013-03-23 05:12:00,
2013-03-23 00:22:00,19.0,16.0,-100.00,NW,320,5.0,6.0,89,0.00,,,0.00,,2013-03-23 05:22:00,
2013-03-23 00:32:00,19.0,16.0,-100.00,NNW,330,5.0,6.0,89,0.00,,,0.00,,2013-03-23 05:32:00,
2013-03-23 00:42:00,18.0,16.0,-100.00,NNW,345,4.0,6.0,89,0.00,,,0.00,,2013-03-23 05:42:00,
2013-03-23 00:52:00,18.0,16.0,-100.00,North,355,4.0,4.0,89,0.00,,,0.00,,2013-03-23 05:52:00,
2013-03-23 01:02:00,18.0,16.0,-100.00,NNW,335,4.0,6.0,89,0.00,,,0.00,,2013-03-23 06:02:00,
2013-03-23 01:12:00,17.0,16.0,-100.00,NNW,345,4.0,5.0,89,0.00,,,0.00,,2013-03-23 06:12:00,
2013-03-23 01:22:00,17.0,14.0,-100.00,NNW,340,4.0,5.0,89,0.00,,,0.00,,2013-03-23 06:22:00,
2013-03-23 01:32:00,17.0,14.0,-100.00,NNW,335,4.0,4.0,89,0.00,,,0.00,,2013-03-23 06:32:00,
2013-03-23 01:42:00,17.0,14.0,-100.00,NW,310,4.0,4.0,89,0.00,,,0.00,,2013-03-23 06:42:00,
2013-03-23 01:52:00,16.0,14.0,-100.00,WNW,295,3.0,5.0,88,0.00,,,0.00,,2013-03-23 06:52:00,
2013-03-23 02:02:00,16.0,14.0,-100.00,West,275,6.0,6.0,88,0.00,,,0.00,,2013-03-23 07:02:00,
2013-03-23 02:12:00,16.0,12.0,-100.00,WNW,290,6.0,7.0,88,0.00,,,0.00,,2013-03-23 07:12:00,
2013-03-23 02:22:00,16.0,12.0,-100.00,WNW,285,7.0,7.0,88,0.00,,,0.00,,2013-03-23 07:22:00,
2013-03-23 02:32:00,15.0,12.0,-100.00,WNW,290,7.0,9.0,88,0.00,,,0.00,,2013-03-23 07:32:00,
2013-03-23 02:42:00,15.0,12.0,-100.00,NW,315,6.0,9.0,88,0.00,,,0.00,,2013-03-23 07:42:00,
2013-03-23 02:52:00,15.0,12.0,-100.00,NW,325,6.0,7.0,88,0.00,,,0.00,,2013-03-23 07:52:00,
2013-03-23 03:02:00,15.0,12.0,-100.00,NW,320,6.0,6.0,88,0.00,,,0.00,,2013-03-23 08:02:00,
2013-03-23 03:12:00,14.0,10.0,-100.00,NW,305,6.0,7.0,88,0.00,,,0.00,,2013-03-23 08:12:00,
2013-03-23 03:22:00,14.0,12.0,-100.00,WNW,300,6.0,7.0,88,0.00,,,0.00,,2013-03-23 08:22:00,
2013-03-23 03:32:00,15.0,12.0,-100.00,WNW,300,7.0,7.0,88,0.00,,,0.00,,2013-03-23 08:32:00,
2013-03-23 03:42:00,14.0,12.0,-100.00,NW,325,6.0,7.0,88,0.00,,,0.00,,2013-03-23 08:42:00,
2013-03-23 04:02:00,13.0,10.0,-100.00,NNW,330,6.0,6.0,88,0.00,,,0.00,,2013-03-23 09:02:00,
2013-03-23 04:12:00,12.0,9.0,-100.00,NNW,330,6.0,6.0,88,0.00,,,0.00,,2013-03-23 09:12:00,
2013-03-23 04:22:00,12.0,10.0,-100.00,NW,320,6.0,6.0,88,0.00,,,0.00,,2013-03-23 09:22:00,
2013-03-23 04:33:00,11.0,9.0,-100.00,NW,315,5.0,6.0,88,0.00,,,0.00,,2013-03-23 09:33:00,
2013-03-23 04:42:00,11.0,9.0,-100.00,NW,310,4.0,6.0,89,0.00,,,0.00,,2013-03-23 09:42:00,
2013-03-23 04:52:00,11.0,9.0,-100.00,NW,315,3.0,6.0,89,0.00,,,0.00,,2013-03-23 09:52:00,
2013-03-23 05:03:00,11.0,9.0,-100.00,NW,310,1.0,4.0,89,0.00,,,0.00,,2013-03-23 10:03:00,
2013-03-23 05:12:00,11.0,9.0,-100.00,West,280,1.0,3.0,90,0.00,,,0.00,,2013-03-23 10:12:00,
2013-03-23 05:23:00,11.0,9.0,-100.00,West,265,4.0,4.0,91,0.00,,,0.00,,2013-03-23 10:23:00,
2013-03-23 05:33:00,9.0,7.0,-100.00,WSW,250,6.0,6.0,91,0.00,,,0.00,,2013-03-23 10:33:00,
2013-03-23 05:42:00,8.0,7.0,-100.00,West,265,4.0,6.0,91,0.00,,,0.00,,2013-03-23 10:42:00,
2013-03-23 05:52:00,9.0,7.0,-100.00,West,280,4.0,5.0,92,0.00,,,0.00,,2013-03-23 10:52:00,
2013-03-23 06:03:00,11.0,10.0,-100.00,WNW,285,4.0,5.0,93,0.00,,,0.00,,2013-03-23 11:03:00,
2013-03-23 06:12:00,11.0,9.0,-100.00,NW,310,3.0,5.0,93,0.00,,,0.00,,2013-03-23 11:12:00,
2013-03-23 06:22:00,10.0,9.0,-100.00,NW,310,5.0,6.0,93,0.00,,,0.00,,2013-03-23 11:22:00,
2013-03-23 06:32:00,10.0,9.0,-100.00,NW,320,6.0,6.0,93,0.00,,,0.00,,2013-03-23 11:32:00,
2013-03-23 06:42:00,11.0,9.0,-100.00,NW,310,6.0,6.0,93,0.00,,,0.00,,2013-03-23 11:42:00,
2013-03-23 06:51:00,10.0,9.0,-100.00,NW,315,6.0,8.0,93,0.00,,,0.00,,2013-03-23 11:51:00,
2013-03-23 07:02:00,11.0,9.0,-100.00,NW,310,6.0,8.0,93,0.00,,,0.00,,2013-03-23 12:02:00,
2013-03-23 07:12:00,10.0,9.0,-100.00,NW,320,7.0,8.0,93,0.00,,,0.00,,2013-03-23 12:12:00,
2013-03-23 07:22:00,11.0,9.0,-100.00,NW,315,6.0,7.0,93,0.00,,,0.00,,2013-03-23 12:22:00,
2013-03-23 07:33:00,9.0,7.0,-100.00,NNW,345,6.0,7.0,93,0.00,,,0.00,,2013-03-23 12:33:00,
2013-03-23 07:42:00,8.0,7.0,-100.00,NNW,345,4.0,6.0,93,0.00,,,0.00,,2013-03-23 12:42:00,
2013-03-23 07:52:00,7.0,5.0,-100.00,NNW,340,4.0,6.0,93,0.00,,,0.00,,2013-03-23 12:52:00,
2013-03-23 08:02:00,9.0,7.0,-100.00,WNW,300,6.0,9.0,93,0.00,,,0.00,,2013-03-23 13:02:00,
2013-03-23 08:12:00,9.0,9.0,-100.00,West,280,3.0,7.0,93,0.00,,,0.00,,2013-03-23 13:12:00,
2013-03-23 08:22:00,12.0,10.0,-100.00,WNW,285,2.0,3.0,93,0.00,,,0.00,,2013-03-23 13:22:00,
2013-03-23 08:32:00,12.0,10.0,-100.00,WSW,245,4.0,6.0,92,0.00,,,0.00,,2013-03-23 13:32:00,
2013-03-23 08:42:00,13.0,10.0,-100.00,West,260,3.0,4.0,91,0.00,,,0.00,,2013-03-23 13:42:00,
2013-03-23 08:52:00,14.0,10.0,-100.00,West,275,6.0,7.0,89,0.00,,,0.00,,2013-03-23 13:52:00,
2013-03-23 09:03:00,14.0,10.0,-100.00,WNW,290,6.0,7.0,88,0.00,,,0.00,,2013-03-23 14:03:00,
2013-03-23 09:12:00,14.0,12.0,-100.00,West,275,6.0,8.0,88,0.00,,,0.00,,2013-03-23 14:12:00,
2013-03-23 09:22:00,17.0,14.0,-100.00,West,260,7.0,7.0,87,0.00,,,0.00,,2013-03-23 14:22:00,
2013-03-23 09:32:00,19.0,14.0,-100.00,WSW,245,7.0,7.0,83,0.00,,,0.00,,2013-03-23 14:32:00,
2013-03-23 09:42:00,18.0,14.0,-100.00,NW,305,6.0,8.0,82,0.00,,,0.00,,2013-03-23 14:42:00,
2013-03-23 09:52:00,18.0,14.0,-100.00,WNW,295,6.0,7.0,82,0.00,,,0.00,,2013-03-23 14:52:00,
2013-03-23 10:03:00,19.0,14.0,-100.00,NW,320,7.0,9.0,83,0.00,,,0.00,,2013-03-23 15:03:00,
2013-03-23 10:12:00,18.0,14.0,-100.00,NW,320,7.0,9.0,82,0.00,,,0.00,,2013-03-23 15:12:00,
2013-03-23 10:22:00,20.0,16.0,-100.00,NW,320,4.0,9.0,82,0.00,,,0.00,,2013-03-23 15:22:00,
2013-03-23 10:33:00,20.0,16.0,-100.00,NW,320,7.0,8.0,81,0.00,,,0.00,,2013-03-23 15:33:00,
2013-03-23 10:43:00,21.0,16.0,-100.00,NNW,330,6.0,8.0,81,0.00,,,0.00,,2013-03-23 15:43:00,
2013-03-23 10:52:00,22.0,18.0,-100.00,NW,320,5.0,7.0,80,0.00,,,0.00,,2013-03-23 15:52:00,
2013-03-23 11:03:00,23.0,18.0,-100.00,NW,310,4.0,6.0,79,0.00,,,0.00,,2013-03-23 16:03:00,
2013-03-23 11:12:00,23.0,18.0,-100.00,NW,320,5.0,6.0,79,0.00,,,0.00,,2013-03-23 16:12:00,
2013-03-23 11:23:00,24.0,18.0,-100.00,NW,305,6.0,7.0,78,0.00,,,0.00,,2013-03-23 16:23:00,
2013-03-23 11:32:00,25.0,19.0,-100.00,NW,325,7.0,8.0,78,0.00,,,0.00,,2013-03-23 16:32:00,
2013-03-23 11:42:00,25.0,19.0,-100.00,NW,310,7.0,8.0,78,0.00,,,0.00,,2013-03-23 16:42:00,
2013-03-23 11:53:00,26.0,19.0,-100.00,NW,310,6.0,9.0,77,0.00,,,0.00,,2013-03-23 16:53:00,
2013-03-23 12:02:00,26.0,19.0,-100.00,NW,320,7.0,9.0,76,0.00,,,0.00,,2013-03-23 17:02:00,
2013-03-23 12:12:00,27.0,19.0,-100.00,NW,305,7.0,9.0,76,0.00,,,0.00,,2013-03-23 17:12:00,
2013-03-23 12:22:00,27.0,19.0,-100.00,NW,310,6.0,9.0,75,0.00,,,0.00,,2013-03-23 17:22:00,
2013-03-23 12:32:00,27.0,21.0,-100.00,NW,320,6.0,9.0,75,0.00,,,0.00,,2013-03-23 17:32:00,
2013-03-23 12:42:00,28.0,21.0,-100.00,NW,320,6.0,7.0,74,0.00,,,0.00,,2013-03-23 17:42:00,
2013-03-23 12:52:00,29.0,21.0,-100.00,NW,320,5.0,7.0,73,0.00,,,0.00,,2013-03-23 17:52:00,
2013-03-23 13:03:00,30.0,21.0,-100.00,WNW,300,5.0,7.0,71,0.00,,,0.00,,2013-03-23 18:03:00,
2013-03-23 13:12:00,29.0,21.0,-100.00,NW,320,7.0,8.0,71,0.00,,,0.00,,2013-03-23 18:12:00,
2013-03-23 13:22:00,30.0,21.0,-100.00,NW,320,6.0,7.0,71,0.00,,,0.00,,2013-03-23 18:22:00,
2013-03-23 13:32:00,29.0,21.0,-100.00,NW,325,6.0,8.0,71,0.00,,,0.00,,2013-03-23 18:32:00,
2013-03-23 13:42:00,29.0,21.0,-100.00,NW,310,7.0,9.0,71,0.00,,,0.00,,2013-03-23 18:42:00,
2013-03-23 13:52:00,30.0,21.0,-100.00,NW,325,4.0,9.0,71,0.00,,,0.00,,2013-03-23 18:52:00,
2013-03-23 14:03:00,31.0,23.0,-100.00,NW,310,6.0,9.0,70,0.00,,,0.00,,2013-03-23 19:03:00,
2013-03-23 14:12:00,30.0,21.0,-100.00,NW,315,6.0,7.0,70,0.00,,,0.00,,2013-03-23 19:12:00,
2013-03-23 14:22:00,29.0,21.0,-100.00,NW,315,6.0,7.0,70,0.00,,,0.00,,2013-03-23 19:22:00,
2013-03-23 14:32:00,30.0,21.0,-100.00,NW,315,6.0,9.0,71,0.00,,,0.00,,2013-03-23 19:32:00,
2013-03-23 14:42:00,31.0,23.0,-100.00,NNW,330,4.0,7.0,70,0.00,,,0.00,,2013-03-23 19:42:00,
2013-03-23 14:52:00,31.0,21.0,-100.00,NW,325,6.0,7.0,68,0.00,,,0.00,,2013-03-23 19:52:00,
2013-03-23 15:02:00,31.0,23.0,-100.00,NW,305,5.0,7.0,68,0.00,,,0.00,,2013-03-23 20:02:00,
2013-03-23 15:12:00,31.0,23.0,-100.00,NNW,335,6.0,7.0,68,0.00,,,0.00,,2013-03-23 20:12:00,
2013-03-23 15:22:00,31.0,23.0,-100.00,NNW,335,5.0,7.0,68,0.00,,,0.00,,2013-03-23 20:22:00,
2013-03-23 15:32:00,31.0,21.0,-100.00,NW,325,5.0,7.0,68,0.00,,,0.00,,2013-03-23 20:32:00,
2013-03-23 15:42:00,31.0,21.0,-100.00,NW,320,7.0,9.0,69,0.00,,,0.00,,2013-03-23 20:42:00,
2013-03-23 15:52:00,31.0,23.0,-100.00,WNW,300,6.0,7.0,70,0.00,,,0.00,,2013-03-23 20:52:00,
2013-03-23 16:02:00,31.0,23.0,-100.00,NW,320,6.0,7.0,70,0.00,,,0.00,,2013-03-23 21:02:00,
2013-03-23 16:12:00,30.0,23.0,-100.00,WNW,300,6.0,9.0,71,0.00,,,0.00,,2013-03-23 21:12:00,
2013-03-23 16:33:00,30.0,23.0,-100.00,WNW,285,7.0,9.0,74,0.00,,,0.00,,2013-03-23 21:33:00,
2013-03-23 16:43:00,30.0,23.0,-100.00,WNW,285,7.0,9.0,76,0.00,,,0.00,,2013-03-23 21:43:00,
2013-03-23 16:53:00,30.0,23.0,-100.00,WNW,285,9.0,10.0,77,0.00,,,0.00,,2013-03-23 21:53:00,
2013-03-23 17:02:00,29.0,23.0,-100.00,WNW,290,10.0,11.0,79,0.00,,,0.00,,2013-03-23 22:02:00,
2013-03-23 17:12:00,29.0,23.0,-100.00,WNW,285,11.0,12.0,80,0.00,,,0.00,,2013-03-23 22:12:00,
2013-03-23 17:23:00,28.0,23.0,-100.00,WNW,285,11.0,13.0,82,0.00,,,0.00,,2013-03-23 22:23:00,
2013-03-23 17:32:00,28.0,23.0,-100.00,West,280,12.0,14.0,83,0.00,,,0.00,,2013-03-23 22:32:00,
2013-03-23 17:42:00,27.0,23.0,-100.00,West,280,12.0,15.0,84,0.00,,,0.00,,2013-03-23 22:42:00,
2013-03-23 17:52:00,27.0,23.0,-100.00,WNW,285,13.0,16.0,85,0.00,,,0.00,,2013-03-23 22:52:00,
2013-03-23 18:02:00,27.0,23.0,-100.00,WNW,285,11.0,16.0,85,0.00,,,0.00,,2013-03-23 23:02:00,
2013-03-23 18:12:00,26.0,23.0,-100.00,WNW,295,12.0,15.0,85,0.00,,,0.00,,2013-03-23 23:12:00,
2013-03-23 18:22:00,26.0,23.0,-100.00,WNW,295,12.0,15.0,85,0.00,,,0.00,,2013-03-23 23:22:00,
2013-03-23 18:33:00,26.0,23.0,-100.00,WNW,285,10.0,14.0,87,0.00,,,0.00,,2013-03-23 23:33:00,
2013-03-23 18:42:00,26.0,23.0,-100.00,WNW,285,10.0,12.0,87,0.00,,,0.00,,2013-03-23 23:42:00,
2013-03-23 18:52:00,25.0,23.0,-100.00,WNW,285,11.0,14.0,88,0.00,,,0.00,,2013-03-23 23:52:00,
2013-03-23 19:02:00,25.0,23.0,-100.00,West,275,7.0,13.0,89,0.00,,,0.00,,2013-03-24 00:02:00,
2013-03-23 19:12:00,25.0,23.0,-100.00,West,280,9.0,12.0,89,0.00,,,0.00,,2013-03-24 00:12:00,
2013-03-23 19:22:00,24.0,21.0,-100.00,WNW,285,12.0,14.0,91,0.00,,,0.00,,2013-03-24 00:22:00,
2013-03-23 19:32:00,24.0,21.0,-100.00,West,280,12.0,14.0,91,0.00,,,0.00,,2013-03-24 00:32:00,
2013-03-23 19:42:00,24.0,21.0,-100.00,WNW,285,11.0,15.0,92,0.00,,,0.00,,2013-03-24 00:42:00,
2013-03-23 19:52:00,24.0,21.0,-100.00,WNW,285,10.0,14.0,92,0.00,,,0.00,,2013-03-24 00:52:00,
2013-03-23 20:02:00,23.0,21.0,-100.00,WNW,285,11.0,13.0,93,0.00,,,0.00,,2013-03-24 01:02:00,
2013-03-23 20:12:00,23.0,21.0,-100.00,WNW,285,11.0,13.0,93,0.00,,,0.00,,2013-03-24 01:12:00,
2013-03-23 20:22:00,23.0,21.0,-100.00,WNW,290,11.0,14.0,93,0.00,,,0.00,,2013-03-24 01:22:00,
2013-03-23 20:32:00,23.0,21.0,-100.00,WNW,285,11.0,14.0,93,0.00,,,0.00,,2013-03-24 01:32:00,
2013-03-23 20:42:00,23.0,21.0,-100.00,WNW,295,10.0,13.0,93,0.00,,,0.00,,2013-03-24 01:42:00,
2013-03-23 20:52:00,22.0,21.0,-100.00,WNW,300,11.0,13.0,94,0.00,,,0.00,,2013-03-24 01:52:00,
2013-03-23 21:02:00,22.0,21.0,-100.00,WNW,295,11.0,15.0,94,0.00,,,0.00,,2013-03-24 02:02:00,
2013-03-23 21:12:00,22.0,21.0,-100.00,NW,305,9.0,14.0,94,0.00,,,0.00,,2013-03-24 02:12:00,
2013-03-23 21:22:00,22.0,21.0,-100.00,NW,305,9.0,13.0,94,0.00,,,0.00,,2013-03-24 02:22:00,
2013-03-23 21:32:00,22.0,21.0,-100.00,NW,310,10.0,12.0,94,0.00,,,0.00,,2013-03-24 02:32:00,
2013-03-23 21:42:00,22.0,21.0,-100.00,NW,310,9.0,13.0,94,0.00,,,0.00,,2013-03-24 02:42:00,
2013-03-23 21:52:00,22.0,21.0,-100.00,NW,320,9.0,12.0,95,0.00,,,0.00,,2013-03-24 02:52:00,
2013-03-23 22:02:00,22.0,21.0,-100.00,NW,315,9.0,12.0,95,0.00,,,0.00,,2013-03-24 03:02:00,
2013-03-23 22:12:00,22.0,21.0,-100.00,NW,310,10.0,14.0,95,0.00,,,0.00,,2013-03-24 03:12:00,
2013-03-23 22:22:00,22.0,21.0,-100.00,NW,315,10.0,14.0,95,0.00,,,0.00,,2013-03-24 03:22:00,
2013-03-23 22:33:00,21.0,21.0,-100.00,NW,315,10.0,13.0,95,0.00,,,0.00,,2013-03-24 03:33:00,
2013-03-23 22:42:00,21.0,19.0,-100.00,NW,310,9.0,12.0,95,0.00,,,0.00,,2013-03-24 03:42:00,
2013-03-23 22:52:00,21.0,19.0,-100.00,NW,315,9.0,12.0,96,0.00,,,0.00,,2013-03-24 03:52:00,
2013-03-23 23:02:00,21.0,19.0,-100.00,NW,310,10.0,12.0,96,0.00,,,0.00,,2013-03-24 04:02:00,
2013-03-23 23:12:00,21.0,19.0,-100.00,NW,315,9.0,12.0,96,0.00,,,0.00,,2013-03-24 04:12:00,
2013-03-23 23:22:00,21.0,19.0,-100.00,NW,315,9.0,12.0,96,0.00,,,0.00,,2013-03-24 04:22:00,
2013-03-23 23:32:00,21.0,19.0,-100.00,NW,310,9.0,12.0,96,0.00,,,0.00,,2013-03-24 04:32:00,
2013-03-23 23:42:00,21.0,19.0,-100.00,NW,315,8.0,12.0,96,0.00,,,0.00,,2013-03-24 04:42:00,
2013-03-23 23:52:00,21.0,19.0,-100.00,NW,320,8.0,11.0,96,0.00,,,0.00,,2013-03-24 04:52:00,